Weather History for Safford, AZ

Change the Weather History Date:

Monday, April 15, 2013

  Actual Average Record
Temperature  
Mean Temperature 69 °F -  
Max Temperature 86 °F 79 °F 95 °F (1962)
Min Temperature 52 °F 42 °F 29 °F (1970)
Cooling Degree Days 4    
Growing Degree Days 19 (Base 50)    
Moisture  
Dew Point 24 °F    
Average Humidity 19    
Maximum Humidity 35    
Minimum Humidity 7    
Precipitation  
Precipitation 0.00 in - - ()
Sea Level Pressure  
Sea Level Pressure 29.62 in    
Wind  
Wind Speed 8 mph (NW)    
Max Wind Speed 22 mph    
Max Gust Speed 30 mph    
Visibility 10 miles    
Events      
Averages and records for this station are not official NWS values.
T = Trace of Precipitation, MM = Missing Value Source: NWS Daily Summary

Daily Weather History Graph

Daily Weather History Graph

Search for Another Location

Airport:

Trip Planner

Search our weather history database for the weather conditions in past years. The results will help you decide how hot, cold, wet, or windy it might be!

Date:

Astronomy

Apr. 15, 2013 Rise Set
Actual Time 5:48 AM MST 6:48 PM MST
Civil Twilight 5:23 AM MST 7:14 PM MST
Nautical Twilight 4:53 AM MST 7:44 PM MST
Astronomical Twilight 4:22 AM MST 8:15 PM MST
Moon 9:26 AM MST (4/15) 11:40 PM MST (4/15)
Length of Visible Light 13h 51m
Length of Day
13h 00m
Waxing Crescent, 25% of the Moon is Illuminated
Apr 15
Waxing Crescent
Apr 18
First Quarter
Apr 25
Full
May 2
Last Quarter
May 9
New

Hourly Weather History & Observations

Time (MST) Temp. Dew Point Humidity Pressure Visibility Wind Dir Wind Speed Gust Speed Precip Events Conditions
12:51 AM 66.0 °F 30.0 °F 26% 29.60 in 10.0 mi NNW 11.5 mph - N/A   Clear
1:51 AM 64.0 °F 30.0 °F 28% 29.60 in 10.0 mi North 6.9 mph - N/A   Clear
2:51 AM 61.0 °F 28.9 °F 30% 29.62 in 10.0 mi NW 4.6 mph - N/A   Clear
3:51 AM 61.0 °F 28.0 °F 29% 29.62 in 10.0 mi Calm Calm - N/A   Clear
4:51 AM 57.9 °F 27.0 °F 31% 29.64 in 10.0 mi Calm Calm - N/A   Clear
5:51 AM 52.0 °F 25.0 °F 35% 29.66 in 10.0 mi East 3.5 mph - N/A   Clear
6:51 AM 63.0 °F 28.0 °F 27% 29.68 in 10.0 mi NE 6.9 mph - N/A   Clear
7:51 AM 66.0 °F 27.0 °F 23% 29.69 in 10.0 mi East 4.6 mph - N/A   Clear
8:51 AM 69.1 °F 26.1 °F 20% 29.70 in 10.0 mi North 3.5 mph - N/A   Clear
9:51 AM 72.0 °F 26.1 °F 18% 29.69 in 10.0 mi East 6.9 mph - N/A   Clear
10:51 AM 75.0 °F 25.0 °F 16% 29.66 in 10.0 mi ENE 5.8 mph 16.1 mph N/A   Clear
11:51 AM 78.1 °F 23.0 °F 13% 29.64 in 10.0 mi Variable 6.9 mph - N/A   Clear
12:51 PM 81.0 °F 21.9 °F 11% 29.62 in 10.0 mi Variable 5.8 mph - N/A   Clear
1:51 PM 81.0 °F 21.0 °F 11% 29.59 in 10.0 mi Variable 3.5 mph 16.1 mph N/A   Clear
2:51 PM 86.0 °F 18.0 °F 8% 29.55 in 10.0 mi West 21.9 mph 29.9 mph N/A   Clear
3:51 PM 86.0 °F 18.0 °F 8% 29.55 in 10.0 mi West 18.4 mph 27.6 mph N/A   Clear
4:51 PM 84.9 °F 15.1 °F 7% 29.55 in 10.0 mi West 17.3 mph 23.0 mph N/A   Clear
5:51 PM 82.9 °F 16.0 °F 8% 29.57 in 10.0 mi West 17.3 mph 23.0 mph N/A   Clear
6:51 PM 79.0 °F 16.0 °F 9% 29.57 in 10.0 mi West 17.3 mph - N/A   Clear
7:51 PM 75.0 °F 17.1 °F 11% 29.60 in 10.0 mi WNW 9.2 mph - N/A   Clear
8:51 PM 73.9 °F 23.0 °F 15% 29.63 in 10.0 mi WSW 9.2 mph - N/A   Clear
9:51 PM 70.0 °F 24.1 °F 18% 29.65 in 10.0 mi WNW 12.7 mph 16.1 mph N/A   Clear
10:51 PM 69.1 °F 27.0 °F 21% 29.65 in 10.0 mi NNW 10.4 mph - N/A   Clear
11:51 PM 66.0 °F 28.0 °F 24% 29.66 in 10.0 mi West 4.6 mph - N/A   Clear